+ View the NASA Portal
+ Center for Near-Earth Object Studies
IMPORTANT:
The SSD Announcement email list is now available. Major changes are coming in the near future, including possible hostname and/or URL changes. To be notified of such changes, subscribe to this email list.
Please visit
this page
for more details.
Don't show this message again
JPL Small-Body Database Browser
Search:
[
help
]
226075 (2002 JM128)
Classification:
Main-belt Asteroid
SPK-ID:
2226075
[
Ephemeris
|
Orbit Diagram
|
Orbital Elements
|
Mission Design
|
Physical Parameters
|
Discovery Circumstances
|
Close-Approach Data
]
[ show orbit diagram ]
Orbital Elements at Epoch 2458600.5 (2019-Apr-27.0) TDB
Reference:
JPL 12
(heliocentric ecliptic J2000)
Element
Value
Uncertainty (1-sigma)
Units
e
.04651267708656892
1.1102e-07
a
2.976173428444667
3.8339e-08
au
q
2.837743634813794
3.3864e-07
au
i
10.11613288599725
1.3585e-05
deg
node
199.0596536958812
2.3532e-05
deg
peri
28.07782901442884
9.3586e-05
deg
M
110.0387514913048
9.3409e-05
deg
t
p
2458027.269971492282
(2017-Sep-30.76997149)
0.00048153
TDB
period
1875.364882516731
5.13
3.6238e-05
9.921e-08
d
yr
n
.1919626433000504
3.7093e-09
deg/d
Q
3.11460322207554
4.0123e-08
au
Orbit Determination Parameters
# obs. used (total)
274
data-arc span
6387 days (17.49 yr)
first obs. used
2002-05-07
last obs. used
2019-11-01
planetary ephem.
DE431
SB-pert. ephem.
SB431-N16
condition code
0
norm. resid. RMS
.608
source
ORB
producer
Otto Matic
solution date
2019-Dec-04 17:25:54
Additional Information
Earth MOID
= 1.83375 au
Jupiter MOID
= 1.85702 au
T_jup
= 3.236
[ show covariance matrix ]
[
Ephemeris
|
Orbit Diagram
|
Orbital Elements
|
Mission Design
|
Physical Parameters
|
Discovery Circumstances
|
Close-Approach Data
]
Physical Parameter Table
Parameter
Symbol
Value
Units
Sigma
Reference
Notes
absolute magnitude
H
15.7
n/a
MPO268232
226075 (2002 JM128)
Discovered 2002-May-07 by NEAT at Palomar
Reference:
20091202/Numbers.arc
Last Updated:
2009-12-04
[ show close-approach data ]
[
Ephemeris
|
Orbit Diagram
|
Orbital Elements
|
Mission Design
|
Physical Parameters
|
Discovery Circumstances
|
Close-Approach Data
]
2019-Dec-06 23:23 UT
(server date/time)
Site Manager:
Ryan S. Park
Webmaster
:
Alan B. Chamberlin